Location: Gull Harbor
(47.1000°N, 122.9000°W)
Time: 06:44:39
(UTC-08:00)

BlueWalker 3 - Visible Passes

Search period start: 15 December 2025 00:00
Search period end: 25 December 2025 00:00
Orbit: 454 x 462 km, 53.2° (Epoch: 14 December)

Date Brightness Start Highest point End Pass type
(mag) Time Alt. Az. Time Alt. Az. Time Alt. Az.
18 Dec 4.7 07:09:33 10° S 07:12:21 22° SE 07:15:11 10° E visible
19 Dec 4.8 06:35:05 10° S 06:37:30 17° SE 06:39:57 10° E visible
20 Dec 4.9 06:00:48 10° SSE 06:02:40 14° SE 06:04:33 10° E visible
21 Dec 5.1 05:27:04 10° SE 05:27:51 11° SE 05:28:38 10° ESE visible
21 Dec 2.2 07:01:11 10° SW 07:04:44 63° SE 07:08:18 10° ENE visible
22 Dec 2.6 06:26:20 10° SW 06:29:48 50° SE 06:33:18 10° ENE visible
23 Dec 3.0 05:52:44 19° SSW 05:54:53 40° SE 05:58:17 10° ENE visible
24 Dec 3.3 05:20:00 32° SE 05:20:00 32° SE 05:23:12 10° ENE visible
24 Dec 1.9 06:53:51 10° WSW 06:57:22 54° NNW 07:00:56 10° ENE visible
